AFR600 TFFR-TFFF

Flight info

Callsign AFR600
Flight time 0h 26m
Altitude 13000
Route KATIM2F KATIM KATIM2L
Aircraft A320/M-SDE2E3FGIJ1RWY/HB1

Departure

Time 2026-04-26 20:31
Airport Maryse Condé International Airport (TFFR)

Arrival

Time 2026-04-26 20:58
Airport Martinique Aimé Césaire International Airport (TFFF)
Time Latitude Longitude Altitude Speed Heading
2026-04-26 19:50 16.26901 -61.52614 51 ft 0 kts 349°
2026-04-26 20:16 16.26898 -61.52613 23 ft 3 kts 349°
2026-04-26 20:16 16.26872 -61.52608 23 ft 4 kts 348°
2026-04-26 20:17 16.26847 -61.52602 23 ft 2 kts 348°
2026-04-26 20:17 16.26825 -61.52597 23 ft 4 kts 341°
2026-04-26 20:17 16.26802 -61.52585 23 ft 4 kts 307°
2026-04-26 20:17 16.26795 -61.52573 28 ft 1 kts 280°
2026-04-26 20:18 16.26795 -61.52572 28 ft 0 kts 280°
2026-04-26 20:23 16.26795 -61.52575 23 ft 1 kts 280°
2026-04-26 20:23 16.26798 -61.52589 24 ft 3 kts 280°
2026-04-26 20:24 16.26804 -61.52626 23 ft 7 kts 280°
2026-04-26 20:24 16.26817 -61.52692 23 ft 12 kts 282°
2026-04-26 20:24 16.26836 -61.52791 23 ft 16 kts 281°
2026-04-26 20:24 16.26850 -61.52882 23 ft 11 kts 267°
2026-04-26 20:25 16.26813 -61.52933 23 ft 10 kts 202°
2026-04-26 20:25 16.26791 -61.52938 23 ft 10 kts 192°
2026-04-26 20:25 16.26655 -61.52966 23 ft 15 kts 190°
2026-04-26 20:25 16.26538 -61.52993 25 ft 19 kts 207°
2026-04-26 20:26 16.26518 -61.53117 26 ft 20 kts 278°
2026-04-26 20:26 16.26549 -61.53278 28 ft 26 kts 281°
2026-04-26 20:26 16.26586 -61.53477 26 ft 30 kts 281°
2026-04-26 20:26 16.26631 -61.53704 24 ft 35 kts 282°
2026-04-26 20:27 16.26680 -61.53971 20 ft 40 kts 281°
2026-04-26 20:27 16.26736 -61.54269 13 ft 43 kts 281°
2026-04-26 20:27 16.26729 -61.54404 10 ft 10 kts 289°
2026-04-26 20:27 16.26747 -61.54407 11 ft 1 kts 21°
2026-04-26 20:28 16.26757 -61.54366 14 ft 13 kts 103°
2026-04-26 20:28 16.26744 -61.54311 12 ft 0 kts 102°
2026-04-26 20:30 16.26725 -61.54219 13 ft 44 kts 101°
2026-04-26 20:30 16.26622 -61.53666 28 ft 109 kts 100°
2026-04-26 20:30 16.26440 -61.52710 30 ft 158 kts 102°
2026-04-26 20:31 16.26233 -61.51550 583 ft 159 kts 104°
2026-04-26 20:31 16.26001 -61.50436 1288 ft 158 kts 105°
2026-04-26 20:31 16.25782 -61.49311 1981 ft 158 kts 105°
2026-04-26 20:31 16.25589 -61.48186 2591 ft 162 kts 105°
2026-04-26 20:32 16.25368 -61.46949 2879 ft 184 kts 105°
2026-04-26 20:32 16.25099 -61.45575 3143 ft 204 kts 105°
2026-04-26 20:32 16.24812 -61.44056 3437 ft 226 kts 104°
2026-04-26 20:32 16.24421 -61.42394 3796 ft 247 kts 117°
2026-04-26 20:33 16.23251 -61.41082 4438 ft 255 kts 153°
2026-04-26 20:33 16.21542 -61.40667 5218 ft 260 kts 177°
2026-04-26 20:33 16.19722 -61.40744 6066 ft 264 kts 185°
2026-04-26 20:33 16.18891 -61.40834 6433 ft 266 kts 186°
2026-04-26 20:34 16.17386 -61.41008 6940 ft 270 kts 186°
2026-04-26 20:34 16.15508 -61.41188 7725 ft 272 kts 184°
2026-04-26 20:34 16.13608 -61.41307 8501 ft 276 kts 183°
2026-04-26 20:34 16.11676 -61.41367 9265 ft 280 kts 182°
2026-04-26 20:35 16.09712 -61.41384 10019 ft 284 kts 181°
2026-04-26 20:35 16.07695 -61.41379 10447 ft 300 kts 181°
2026-04-26 20:35 16.05530 -61.41361 10641 ft 322 kts 181°
2026-04-26 20:35 16.03249 -61.41338 11141 ft 332 kts 181°
2026-04-26 20:36 16.00924 -61.41313 11787 ft 336 kts 181°
2026-04-26 20:36 15.98567 -61.41289 12454 ft 340 kts 181°
2026-04-26 20:36 15.96180 -61.41262 12880 ft 344 kts 181°
2026-04-26 20:36 15.93793 -61.41229 12994 ft 342 kts 180°
2026-04-26 20:37 15.91435 -61.41195 13013 ft 337 kts 180°
2026-04-26 20:37 15.89096 -61.41162 13008 ft 336 kts 181°
2026-04-26 20:37 15.86765 -61.41131 13015 ft 335 kts 181°
2026-04-26 20:37 15.84436 -61.41105 13016 ft 334 kts 181°
2026-04-26 20:38 15.82110 -61.41080 13015 ft 334 kts 181°
2026-04-26 20:38 15.79786 -61.41052 13020 ft 334 kts 180°
2026-04-26 20:38 15.77461 -61.41023 13024 ft 334 kts 180°
2026-04-26 20:38 15.75142 -61.40995 13023 ft 333 kts 180°
2026-04-26 20:39 15.72858 -61.40966 13018 ft 333 kts 180°
2026-04-26 20:39 15.70544 -61.40937 13029 ft 332 kts 180°
2026-04-26 20:39 15.68233 -61.40908 13029 ft 332 kts 180°
2026-04-26 20:39 15.65920 -61.40879 13030 ft 332 kts 180°
2026-04-26 20:40 15.63610 -61.40849 13044 ft 332 kts 180°
2026-04-26 20:40 15.61295 -61.40817 13036 ft 332 kts 180°
2026-04-26 20:40 15.58988 -61.40786 13043 ft 332 kts 180°
2026-04-26 20:40 15.56674 -61.40758 13051 ft 332 kts 180°
2026-04-26 20:41 15.54370 -61.40732 13045 ft 331 kts 180°
2026-04-26 20:41 15.52066 -61.40706 13043 ft 331 kts 180°
2026-04-26 20:41 15.49767 -61.40679 13046 ft 331 kts 180°
2026-04-26 20:41 15.47462 -61.40652 13045 ft 331 kts 180°
2026-04-26 20:42 15.45157 -61.40627 13030 ft 331 kts 180°
2026-04-26 20:42 15.42856 -61.40601 13024 ft 331 kts 180°
2026-04-26 20:42 15.40555 -61.40573 13019 ft 331 kts 180°
2026-04-26 20:42 15.38262 -61.40348 13025 ft 331 kts 171°
2026-04-26 20:43 15.35997 -61.39925 13029 ft 331 kts 171°
2026-04-26 20:43 15.33728 -61.39505 13029 ft 331 kts 171°
2026-04-26 20:43 15.31467 -61.39088 13022 ft 330 kts 171°
2026-04-26 20:43 15.29208 -61.38672 13024 ft 330 kts 171°
2026-04-26 20:44 15.26947 -61.38257 13014 ft 330 kts 171°
2026-04-26 20:44 15.24688 -61.37843 13023 ft 330 kts 171°
2026-04-26 20:44 15.22431 -61.37429 13021 ft 329 kts 171°
2026-04-26 20:44 15.20204 -61.37020 13021 ft 329 kts 171°
2026-04-26 20:45 15.17918 -61.36598 13022 ft 329 kts 171°
2026-04-26 20:45 15.15689 -61.36190 13020 ft 329 kts 171°
2026-04-26 20:45 15.13433 -61.35778 12979 ft 328 kts 171°
2026-04-26 20:45 15.11218 -61.35372 12729 ft 320 kts 171°
2026-04-26 20:46 15.09046 -61.34974 12483 ft 313 kts 171°
2026-04-26 20:46 15.06921 -61.34583 12234 ft 307 kts 171°
2026-04-26 20:46 15.04834 -61.34197 11985 ft 303 kts 171°
2026-04-26 20:46 15.02763 -61.33817 11760 ft 302 kts 171°
2026-04-26 20:47 15.00699 -61.33440 11507 ft 300 kts 171°
2026-04-26 20:47 14.99348 -61.33194 11347 ft 296 kts 171°
2026-04-26 20:47 14.96668 -61.32706 10995 ft 290 kts 171°
2026-04-26 20:47 14.94687 -61.32344 10641 ft 290 kts 171°
2026-04-26 20:48 14.92946 -61.32026 10316 ft 290 kts 171°
2026-04-26 20:48 14.90950 -61.31662 9937 ft 291 kts 171°
2026-04-26 20:48 14.88952 -61.31296 9523 ft 291 kts 170°
2026-04-26 20:48 14.86968 -61.30931 9180 ft 288 kts 170°
2026-04-26 20:49 14.84986 -61.30567 8806 ft 287 kts 170°
2026-04-26 20:49 14.83042 -61.30123 8407 ft 286 kts 162°
2026-04-26 20:49 14.81171 -61.29460 8079 ft 282 kts 161°
2026-04-26 20:49 14.79323 -61.28816 7477 ft 279 kts 161°
2026-04-26 20:50 14.77506 -61.28188 7007 ft 271 kts 161°
2026-04-26 20:50 14.75748 -61.27582 6585 ft 262 kts 161°
2026-04-26 20:50 14.74044 -61.26996 6172 ft 254 kts 161°
2026-04-26 20:50 14.72397 -61.26428 5768 ft 246 kts 161°
2026-04-26 20:51 14.70799 -61.25876 5387 ft 245 kts 161°
2026-04-26 20:51 14.69168 -61.25311 4993 ft 243 kts 161°
2026-04-26 20:51 14.67592 -61.24764 4601 ft 241 kts 160°
2026-04-26 20:51 14.66005 -61.24214 4235 ft 239 kts 160°
2026-04-26 20:52 14.64471 -61.23682 4189 ft 228 kts 160°
2026-04-26 20:52 14.62974 -61.23162 4107 ft 226 kts 160°
2026-04-26 20:52 14.61485 -61.22645 4009 ft 225 kts 160°
2026-04-26 20:52 14.60002 -61.22131 3901 ft 224 kts 160°
2026-04-26 20:53 14.58527 -61.21620 3811 ft 224 kts 160°
2026-04-26 20:53 14.57074 -61.21042 3713 ft 222 kts 147°
2026-04-26 20:53 14.56092 -61.19863 3597 ft 221 kts 111°
2026-04-26 20:53 14.55981 -61.18281 3268 ft 227 kts 82°
2026-04-26 20:54 14.56258 -61.16678 2919 ft 225 kts 82°
2026-04-26 20:54 14.56539 -61.15115 2600 ft 217 kts 81°
2026-04-26 20:54 14.56804 -61.13638 2301 ft 202 kts 81°
2026-04-26 20:54 14.57048 -61.12271 2068 ft 183 kts 81°
2026-04-26 20:55 14.57262 -61.11057 1893 ft 166 kts 82°
2026-04-26 20:55 14.57461 -61.09916 1639 ft 153 kts 80°
2026-04-26 20:55 14.57644 -61.08876 1439 ft 143 kts 81°
2026-04-26 20:55 14.57814 -61.07881 1211 ft 138 kts 79°
2026-04-26 20:56 14.57976 -61.06907 1016 ft 137 kts 80°
2026-04-26 20:56 14.58159 -61.05941 842 ft 136 kts 80°
2026-04-26 20:56 14.58336 -61.04989 594 ft 137 kts 83°
2026-04-26 20:56 14.58471 -61.04028 438 ft 136 kts 80°
2026-04-26 20:57 14.58638 -61.03072 251 ft 136 kts 82°
2026-04-26 20:57 14.58798 -61.02106 115 ft 137 kts 79°
2026-04-26 20:57 14.58965 -61.01147 39 ft 135 kts 79°
2026-04-26 20:57 14.59100 -61.00326 16 ft 79 kts 81°
2026-04-26 20:58 14.59163 -61.00034 18 ft 19 kts 43°
2026-04-26 20:58 14.59285 -61.00032 20 ft 18 kts 346°
2026-04-26 20:58 14.59364 -61.00066 18 ft 9 kts 317°
2026-04-26 20:58 14.59393 -61.00125 18 ft 9 kts 293°
2026-04-26 20:59 14.59432 -61.00134 18 ft 6 kts 28°
2026-04-26 20:59 14.59466 -61.00111 17 ft 6 kts 33°
2026-04-26 20:59 14.59481 -61.00102 19 ft 0 kts 33°